DMSP 5D-2 F13 DEB, 40610

Orbit data source: Space-Track

DMSP 5D-2 F13 DEB, 40610 is space debris in SSO originally from a launch on Fri, 24 Mar 1995 UTC launched from the Air Force Western Test Range (AFWTR). Debris objects in space refer to the collection of defunct objects orbiting the Earth. Examples of debris include non-operational satellites, rocket bodies, and fragments generated from explosions, collisions, or faulty payload assembly.

Loading next visibility...
Identifier
40610, 1995-015FH
Orbit
SSO
Country
Flag of USUS
Related business
Manufacturer
Unknown
Mission
Spacecraft
Bus & Motor
Unknown
Mass
Unknown
Launch date (UTC)
1995-03-24 (31 years ago)
Launch vehicle
Unknown
Launch site
Air Force Western Test Range (AFWTR)
Object type
Payload
Rocket body
Debris
Shape & HBR
Unknown shape, 0.1 m
Radar Cross Section
Small (<0.1 m²)

Expand to show TLE details & history
Last TLE update: 4 days ago

TLE from 4 days ago
0 DMSP 5D-2 F13 DEB
1 40610U 95015FH  25288.03321365  .00006074  00000-0  19876-2 0  9999
2 40610  98.7061 319.9490 0025911  55.1555 305.2063 14.38650832544229
Epoch: 2025-10-15T00:47Z
TLE epoch observation values (Epoch: 2025-10-15T00:47:49.659Z)
Latitude
-0.00006°
Longitude
-75.821°
Altitude
755.262 km
Speed
7.482 km/s
True Right ascension
21h 19m 47s
True Declination
0° 00' 00"
Sunlit
Object was in full shadow at epoch
Visualization orbit readout
Latitude
Unknown
Longitude
Unknown
Altitude
Unknown
Speed
Unknown
Apparent Right ascension
Unknown
Apparent Declination
Unknown
Sunlit
N/A
Visualization observer readout
Local Sidereal Time
10:35:36
Azimuth
Unknown
Elevation
Unknown
Doppler factor
Unknown
Orbital elements
Apogee altitude
778.589 km
Perigee altitude
741.597 km
Semi-major axis
7,138.23 km
Eccentricity
0.00259
Inclination
98.7061°
RAAN
319.949°
Arg. of periapsis
55.1555°
True anomaly
304.96324°
Mean anomaly
305.2063°
Eccentric anomaly
305.08482°
Mean motion
3.5988 °/min
Orbital period
100.03 mins
BSTAR
0.0019876

Documentation

Showing up to 5 results
|